Location: Unspecified
(0.0000°N, 0.0000°E)
Time: 18:50:47
(UTC+00:00)

Vanguard 3 - Pass Details

Date: 27 November 2019
Orbit: 508 x 3263 km, 33.3° (Epoch: 06 December)

Event Time Altitude Azimuth Distance (km) Brightness Sun altitude
Rises 06:39:42 0° 217° (SW) 3,404 10.2 12.2°
Reaches altitude 10° 06:41:52 10° 210° (SSW) 2,706 9.8 12.7°
Maximum altitude 06:48:12 44° 138° (SE) 1,833 10.0 14.1°
Drops below altitude 10° 06:59:06 10° 71° (ENE) 4,631 11.9 16.7°
Sets 07:04:02 0° 65° (ENE) 6,094 12.3 17.8°
